Regional Weather Roundup
Issued by NWS

Home | Current Version | Previous Version | Graphics & Text | Print | Product List | Glossary On
Versions: 1 2 3 4 5 6 7 8 9 10 11 12 13 14 15 16 17 18 19 20 21 22 23 24 25 26 27 28 29 30 31 32 33 34 35 36 37 38 39 40 41 42 43 44 45 46 47 48 49 50
000
ASUS45 KABQ 290010
RWRNM
NEW MEXICO REGIONAL WEATHER ROUNDUP
NATIONAL WEATHER SERVICE ALBUQUERQUE NM
600 PM MDT SUN MAY 28 2017

NOTE: "FAIR" MEANS FEW OR NO CLOUDS BELOW 12,000 FEET AGL WITH NO
       SIGNIFICANT WEATHER OR OBSTRUCTIONS TO VISION.

      THIS PRODUCT IS RELEASED AS TWO VERSIONS.  ONE VERSION NEAR
      THE TOP OF THE HOUR CONTAINING PRELIMINARY DATA FROM ALBUQUERQUE
      AND OTHER STATIONS.  A FINAL VERSION WITH ADDITIONAL DATA IS
      ISSUED ABOUT 10 MINUTES AFTER THE HOUR.

NMZ501-503-504-510>518-290100-
NORTHWEST PLATEAU/NORTHCENTRAL MOUNTAINS

CITY           SKY/WX    TMP DP  RH WIND       PRES   REMARKS
FARMINGTON     FAIR      77   1   5 VRB7      30.14F
6HR MIN TEMP:  68; 6HR MAX TEMP:  78;

LOS ALAMOS     FAIR      68  25  20 NE9G17    30.26F
SANTA FE       FAIR      75  23  14 CALM      30.18F
6HR MIN TEMP:  67; 6HR MAX TEMP:  77;

TAOS           PTSUNNY   68  19  15 SW25      30.24F
ANGEL FIRE     FAIR      63  28  27 SE13G22   30.32S

$$
NMZ402-403-502-505>509-290100-
WESTCENTRAL MOUNTAINS/SOUTHWEST MOUNTAINS

CITY           SKY/WX    TMP DP  RH WIND       PRES   REMARKS
GALLUP         FAIR      76  20  12 N10       30.18F
6HR MIN TEMP:  70; 6HR MAX TEMP:  79;

GRANTS         FAIR      72  21  14 NE6       30.20F
SILVER CITY    FAIR      80  18  10 SW6       30.10F

$$
NMZ407-409-411-412-290100-
SOUTHERN DESERTS

CITY           SKY/WX    TMP DP  RH WIND       PRES   REMARKS
DEMING         FAIR      86  23  10 VRB6      30.03F
6HR MIN TEMP:  80; 6HR MAX TEMP:  88;

LAS CRUCES     FAIR      86  24  10 SE7       30.06F
HOLLOMAN AFB   FAIR      86  26  11 CALM      30.06F
ALAMOGORDO     FAIR      86  21   9 E6        30.04F
T OR C         LGT RAIN  84  24  11 S8        30.05F
6HR MIN TEMP:  76; 6HR MAX TEMP:  86; 6HR PCP: TRACE;


$$
NMZ519>523-290100-
CENTRAL VALLEYS/CENTRAL HIGHLANDS

CITY           SKY/WX    TMP DP  RH WIND       PRES   REMARKS
ALBUQUERQUE    FAIR      79  23  12 N8        30.13F
6HR MIN TEMP:  71; 6HR MAX TEMP:  80;

DOUBLE EAGLE     N/A     75  30  19 SW5       30.17F
MORIARTY ARPT  FAIR      75  27  17 S10       30.21F
6HR MIN TEMP:  68; 6HR MAX TEMP:  77;

CLINES CORNERS FAIR      69  27  20 S14       30.26F
6HR MIN TEMP:  61; 6HR MAX TEMP:  71;

BELEN          FAIR      80  25  13 E3        30.12F
6HR MIN TEMP:  71; 6HR MAX TEMP:  81;

SOCORRO        FAIR      81  24  12 SE5       30.08F
6HR MIN TEMP:  75; 6HR MAX TEMP:  83;


$$
NMZ524>526-539-540-290100-
SOUTHCENTRAL MOUNTAINS

CITY           SKY/WX    TMP DP  RH WIND       PRES   REMARKS
RUIDOSO        FAIR      66  32  28 E13G22    30.28S

$$
NMZ527>531-290100-
NORTHEAST HIGHLANDS/NORTHEAST PLAINS

CITY           SKY/WX    TMP DP  RH WIND       PRES   REMARKS
LAS VEGAS      PTSUNNY   66  26  22 SE14      30.25F
6HR MIN TEMP:  61; 6HR MAX TEMP:  71;

RATON          FAIR      67  29  24 E10       30.23F
6HR MIN TEMP:  62; 6HR MAX TEMP:  71; 6HR PCP: TRACE;

CLAYTON        FAIR      70  34  26 NE7       30.20F
6HR MIN TEMP:  65; 6HR MAX TEMP:  71;


$$
NMZ532>537-290100-
EASTCENTRAL PLAINS

CITY           SKY/WX    TMP DP  RH WIND       PRES   REMARKS
SANTA ROSA     FAIR      75  30  19 S3        30.15F
TUCUMCARI      FAIR      78  31  17 E7        30.12F
6HR MIN TEMP:  73; 6HR MAX TEMP:  81;

CANNON AFB     FAIR      77  32  19 E9        30.15F
6HR MIN TEMP:  72; 6HR MAX TEMP:  79;

CLOVIS AIRPORT FAIR      79  34  19 NE8G17    30.15F

$$
NMZ028-029-538-290100-
SOUTHEAST PLAINS

CITY           SKY/WX    TMP DP  RH WIND       PRES   REMARKS
ROSWELL        FAIR      84  37  18 NE7       30.07F
6HR MIN TEMP:  75; 6HR MAX TEMP:  85;

ARTESIA        FAIR      84  41  21 NE9       30.06F
CARLSBAD       FAIR      84  41  21 E10G17    30.03F
6HR MIN TEMP:  75; 6HR MAX TEMP:  86;

HOBBS          SUNNY     82  37  20 NE15      30.07F


$$



USA.gov is the U.S. government's official web portal to all federal, state and local government web resources and services.